Flag Weather past 2 weeks in Laval, Quebec, Canada

Now
57 °F

Sprinkles. Mostly cloudy.


Feels Like: 55 °F
Forecast: 35 / 48 °F
Wind: 12 mph from Southwest

Location: Montreal / Mirabel

Current Time: Nov 24, 2014 at 7:42:39 PM

Latest Report: Nov 24, 2014 at 7:00 PM


Visibility: 25 mi

Pressure: 29.33 "Hg

Humidity: 88%

Dew point: 54 °F

Location of LavalLocation

Historic Weather in Laval — Graph

°F

Laval temperature yesterday

Maximum temperature yesterday: 39 °F (at 11:00 AM)
Minimum temperature yesterday: 36 °F (at 12:00 AM)
Average temperature yesterday: 37 °F

Past Weeks' High & Low Weather Summary

 TemperatureHumidityPressure
High64 °F (Nov 24, 3:00 PM)100% (Nov 9, 10:51 PM)30.35 "Hg (Nov 9, 10:51 PM)
Low14 °F (Nov 21, 11:00 PM)38% (Nov 21, 12:00 PM)29.26 "Hg (Nov 24, 6:00 PM)
Average31 °F76%29.92 "Hg
* Reported Nov 9 6:00 PM — Nov 24 6:00 PM, Laval, Weather by CustomWeather, © 2014

Note: Actual official high and low records may vary slightly from our data, if they occured in-between our weather recording intervals... More about our weather records

Advertising

Laval weather history for previous 24 hours

 ConditionsComfort  
Time TempWeatherWind HumidityBarometerVisibility
6:00 PM
Nov 24
63 °FPassing clouds.16 mph64%29.26 "Hg25 mi
5:00 PM63 °FSprinkles. Passing clouds.20 mph64%29.27 "Hg25 mi
4:00 PM64 °FBroken clouds.13 mph64%29.27 "Hg45 mi
3:00 PM64 °FBroken clouds.14 mph64%29.27 "Hg45 mi
2:00 PM52 °FPartly sunny.3 mph94%29.29 "Hg45 mi
1:00 PM57 °FBroken clouds.2 mph88%29.31 "Hg45 mi
12:00 PM54 °FPartly sunny.7 mph94%29.34 "Hg45 mi
11:48 AM52 °FPartly sunny.8 mph94%29.35 "Hg45 mi
11:00 AM50 °FLight rain. Low clouds.10 mph100%29.37 "Hg25 mi
10:00 AM48 °FLight rain. Fog.12 mph94%29.39 "Hg3 mi
9:52 AM48 °FLight rain. Fog.13 mph94%29.41 "Hg2 mi
9:00 AM46 °FLight rain. Fog.14 mph93%29.45 "Hg6 mi
8:00 AM39 °FLight rain. Fog.6 mph100%29.50 "Hg1 mi
7:00 AM43 °FRain. Fog.17 mph100%29.54 "Hg3 mi
6:00 AM37 °FLight rain. Fog.5 mph100%29.62 "Hg4 mi
5:00 AM36 °FSprinkles. Fog.7 mph100%29.68 "Hg4 mi
4:00 AM36 °FFog.6 mph100%29.73 "Hg2 mi
3:00 AM36 °FFog.7 mph93%29.78 "Hg1 mi
2:00 AM36 °FFog.7 mph93%29.83 "Hg1 mi
1:00 AM36 °FFog.6 mph100%29.88 "Hg1 mi
12:00 AM36 °FFog.5 mph100%29.92 "Hg1 mi
11:54 PM
Nov 23
36 °FFog.6 mph100%29.91 "Hg1 mi
11:00 PM36 °FFog.5 mph100%29.94 "Hg1 mi
10:00 PM36 °FFog.6 mph100%29.96 "Hg1 mi
9:00 PM36 °FFog.5 mph100%29.98 "Hg0 mi
8:00 PM36 °FFog.5 mph100%30.01 "Hg0 mi
7:00 PM36 °FFog.3 mph100%30.00 "Hg0 mi
Weather by CustomWeather, © 2014

See weather overviewHow to use our weather pages